This is the latest recevied weather packets stored in our database for station/object KF5JED-13. If no packets are shown the sender has not sent any weather packets the latest 10 day(s).
| Time | Temp. | Humidity | Pressure | Rain* | Wind** | Luminosity | Snow |
|---|---|---|---|---|---|---|---|
| 1777646141 | 10° C | 67% | 1019 hPa | 0 mm | - | 164 W/m² | - |
| 1777645839 | 10° C | 68% | 1019.2 hPa | 0 mm | - | 154 W/m² | - |
| 1777645536 | 10° C | 69% | 1019.5 hPa | 0 mm | - | 135 W/m² | - |
| 1777645232 | 10° C | 69% | 1019.1 hPa | 0 mm | - | 173 W/m² | - |
| 1777644927 | 10° C | 69% | 1019 hPa | 0 mm | - | 154 W/m² | - |
| 1777644626 | 10° C | 70% | 1019.1 hPa | 0 mm | - | 168 W/m² | - |
| 1777644322 | 9.44° C | 70% | 1019.2 hPa | 0 mm | - | 143 W/m² | - |
| 1777644017 | 9.44° C | 70% | 1019.1 hPa | 0 mm | - | 112 W/m² | - |
| 1777643715 | 9.44° C | 71% | 1019 hPa | 0 mm | - | 108 W/m² | - |
| 1777643412 | 9.44° C | 72% | 1019 hPa | 0 mm | - | 106 W/m² | - |
| 1777643109 | 9.44° C | 72% | 1018.7 hPa | 0 mm | - | 85 W/m² | - |
| 1777642805 | 8.89° C | 72% | 1018.6 hPa | 0 mm | - | 72 W/m² | - |
| 1777642502 | 8.89° C | 72% | 1018.8 hPa | 0 mm | - | 53 W/m² | - |
| 1777642198 | 8.89° C | 72% | 1018.8 hPa | 0 mm | - | 36 W/m² | - |
| 1777641895 | 8.89° C | 73% | 1018.7 hPa | 0 mm | - | 30 W/m² | - |
| 1777641590 | 8.89° C | 73% | 1018.5 hPa | 0 mm | - | 28 W/m² | - |
| 1777641290 | 8.89° C | 73% | 1018.6 hPa | 0 mm | - | 26 W/m² | - |
| 1777640987 | 8.89° C | 73% | 1018.7 hPa | 0 mm | - | 22 W/m² | - |
| 1777640683 | 8.89° C | 73% | 1018.7 hPa | 0 mm | - | 15 W/m² | - |
| 1777640380 | 8.89° C | 74% | 1018.7 hPa | 0 mm | - | 12 W/m² | - |
| 1777640077 | 8.89° C | 74% | 1018.4 hPa | 0 mm | - | 13 W/m² | - |
| 1777639773 | 8.89° C | 74% | 1018.2 hPa | 0 mm | - | 13 W/m² | - |
| 1777639471 | 8.89° C | 74% | 1018.1 hPa | 0 mm | - | 12 W/m² | - |
| 1777639167 | 8.89° C | 74% | 1018.2 hPa | 0 mm | - | 10 W/m² | - |
| 1777638864 | 8.89° C | 75% | 1017.9 hPa | 0 mm | - | 8 W/m² | - |
* Rain latest hour (hover to see other rain measurements)
** Current wind speed in m/s (hover to see current wind gust speed)